Midland, MI

3:30 AM EDT on May 30, 2017 (GMT -0400)
Barstow

Weather History for KIKW - October, 2012

Change the Weather History Date:

Thursday, October 18, 2012

  Actual Average (KMBS) Record (KMBS)
Temperature  
Mean Temperature 52 °F -  
Max Temperature 59 °F 56 °F 78 °F (2016)
Min Temperature 45 °F 36 °F 30 °F (1997)
Degree Days  
Heating Degree Days 13    
Growing Degree Days 2 (Base 50)    
Moisture  
Dew Point 46 °F    
Average Humidity 78    
Maximum Humidity 95    
Minimum Humidity 48    
Precipitation  
Precipitation 0.18 in - - ()
Sea Level Pressure  
Sea Level Pressure 29.47 in    
Wind  
Wind Speed 10 mph (SSE)    
Max Wind Speed 24 mph    
Max Gust Speed 41 mph    
Visibility 10 miles    
Events Rain    
Averages and records for this station are not official NWS values.
T = Trace of Precipitation, MM = Missing Value Source: NWS Daily Summary

Daily Weather History Graph

Daily Weather History Graph

Search for Another Location

Airport or City:

Trip Planner

Search our weather history database for the weather conditions in past years. The results will help you decide how hot, cold, wet, or windy it might be!

Date:

Astronomy

Oct. 18, 2012 Rise Set
Actual Time 7:55 AM EDT 6:47 PM EDT
Civil Twilight 7:26 AM EDT 7:16 PM EDT
Nautical Twilight 6:53 AM EDT 7:50 PM EDT
Astronomical Twilight 6:19 AM EDT 8:23 PM EDT
Moon 11:43 AM EDT (10/18) 9:14 PM EDT (10/18)
Length of Visible Light 11h 50m
Length of Day
10h 52m
Waxing Crescent, 14% of the Moon is Illuminated
Oct 18
Waxing Crescent
Oct 21
First Quarter
Oct 29
Full
Nov 6
Last Quarter
Nov 13
New

Hourly Weather History & Observations

Time (EDT) Temp. Windchill Dew Point Humidity Pressure Visibility Wind Dir Wind Speed Gust Speed Precip Events Conditions
12:13 AM 57.7 °F - 55.6 °F 92% 29.52 in 10.0 mi South 10.4 mph - N/A   Light Drizzle
12:34 AM 57.9 °F - 55.4 °F 91% 29.51 in 10.0 mi South 11.5 mph 17.3 mph N/A Rain Rain
12:53 AM 58.1 °F - 55.4 °F 91% 29.51 in 10.0 mi SSE 10.4 mph - N/A   Overcast
1:13 AM 57.6 °F - 55.4 °F 92% 29.51 in 7.0 mi South 9.2 mph - 0.02 in Rain Rain
1:34 AM 57.2 °F - 55.4 °F 94% 29.51 in 10.0 mi SSE 8.1 mph - 0.04 in Rain Light Rain
1:53 AM 57.2 °F - 55.4 °F 94% 29.50 in 10.0 mi SSE 11.5 mph - 0.06 in Rain Light Rain
2:13 AM 57.2 °F - 55.2 °F 93% 29.49 in 10.0 mi SSE 12.7 mph 16.1 mph 0.02 in Rain Light Rain
2:34 AM 57.2 °F - 55.0 °F 92% 29.48 in 10.0 mi SSE 10.4 mph 16.1 mph 0.02 in   Light Drizzle
2:53 AM 57.2 °F - 54.9 °F 92% 29.46 in 10.0 mi SE 11.5 mph 19.6 mph 0.02 in Rain Light Rain
3:13 AM 58.3 °F - 54.7 °F 88% 29.44 in 10.0 mi SE 15.0 mph 24.2 mph N/A   Overcast
3:33 AM 58.5 °F - 54.1 °F 86% 29.43 in 10.0 mi SE 12.7 mph 19.6 mph N/A   Light Drizzle
3:53 AM 58.5 °F - 53.6 °F 84% 29.42 in 10.0 mi ESE 13.8 mph 19.6 mph N/A   Overcast
4:14 AM 58.5 °F - 53.6 °F 84% 29.40 in 10.0 mi SE 11.5 mph - N/A   Overcast
4:33 AM 58.8 °F - 52.7 °F 80% 29.39 in 10.0 mi SSE 12.7 mph 19.6 mph N/A   Overcast
4:53 AM 59.4 °F - 52.2 °F 77% 29.38 in 10.0 mi SE 9.2 mph 19.6 mph N/A   Scattered Clouds
5:13 AM 58.8 °F - 52.0 °F 78% 29.38 in 10.0 mi SE 15.0 mph 19.6 mph N/A   Mostly Cloudy
5:33 AM 58.6 °F - 51.8 °F 78% 29.37 in 10.0 mi SE 11.5 mph 17.3 mph N/A   Mostly Cloudy
6:13 AM 59.0 °F - 51.3 °F 75% 29.35 in 10.0 mi SE 13.8 mph 20.7 mph N/A   Mostly Cloudy
6:34 AM 59.0 °F - 50.9 °F 74% 29.34 in 10.0 mi SE 12.7 mph 19.6 mph N/A   Scattered Clouds
6:53 AM 59.4 °F - 50.9 °F 74% 29.34 in 10.0 mi SE 11.5 mph 17.3 mph N/A   Scattered Clouds
7:34 AM 59.4 °F - 50.0 °F 71% 29.33 in 10.0 mi SE 13.8 mph 19.6 mph N/A   Overcast
7:54 AM 59.2 °F - 50.0 °F 72% 29.33 in 10.0 mi SE 10.4 mph 16.1 mph N/A   Overcast
8:13 AM 58.8 °F - 49.8 °F 72% 29.32 in 10.0 mi SE 15.0 mph 20.7 mph N/A   Overcast
8:17 AM 59.2 °F - 49.6 °F 71% 29.33 in 10.0 mi SE 13.8 mph 21.9 mph N/A   Overcast
8:55 AM 59.0 °F - 50.0 °F 72% 29.33 in 10.0 mi SSE 9.2 mph 21.9 mph N/A   Overcast
8:59 AM 59.2 °F - 49.5 °F 70% 29.33 in 10.0 mi South 9.2 mph - N/A Rain Rain
9:13 AM 56.7 °F - 50.9 °F 81% 29.34 in 7.0 mi South 6.9 mph - 0.01 in Rain Rain
9:34 AM 55.0 °F - 51.8 °F 89% 29.35 in 5.0 mi South 24.2 mph 41.4 mph 0.04 in Rain Heavy Rain
9:53 AM 51.4 °F - 48.7 °F 90% 29.37 in 7.0 mi SW 10.4 mph - 0.07 in Rain Light Rain
10:14 AM 51.3 °F - 49.5 °F 94% 29.38 in 10.0 mi SSW 8.1 mph - 0.01 in Rain Light Rain
10:34 AM 50.5 °F - 48.6 °F 93% 29.38 in 10.0 mi SSW 6.9 mph - 0.01 in   Drizzle
10:53 AM 50.5 °F - 49.1 °F 95% 29.38 in 7.0 mi SSE 3.5 mph - 0.02 in Rain Light Rain
11:14 AM 50.7 °F - 49.5 °F 95% 29.39 in 10.0 mi SSE 5.8 mph - 0.01 in Rain Rain
11:33 AM 50.7 °F - 48.9 °F 94% 29.39 in 10.0 mi South 3.5 mph - 0.01 in   Light Drizzle
11:53 AM 50.9 °F - 48.9 °F 93% 29.41 in 10.0 mi South 9.2 mph - 0.01 in   Overcast
12:13 PM 50.7 °F - 48.6 °F 92% 29.41 in 10.0 mi South 9.2 mph - N/A Rain Rain
12:33 PM 50.2 °F - 48.4 °F 94% 29.41 in 7.0 mi SSW 10.4 mph - N/A   Light Drizzle
12:54 PM 50.4 °F - 48.4 °F 93% 29.43 in 10.0 mi South 10.4 mph - N/A   Overcast
1:13 PM 50.9 °F - 48.0 °F 90% 29.44 in 10.0 mi South 8.1 mph 16.1 mph N/A   Overcast
1:33 PM 51.8 °F - 47.7 °F 86% 29.44 in 10.0 mi South 9.2 mph 16.1 mph N/A   Mostly Cloudy
1:54 PM 48.0 °F - 44.6 °F 88% 29.46 in 7.0 mi SSW 13.8 mph 34.5 mph N/A Rain Rain
2:13 PM 47.8 °F - 44.1 °F 87% 29.46 in 10.0 mi SSW 9.2 mph - N/A   Overcast
2:34 PM 50.0 °F - 45.0 °F 83% 29.46 in 10.0 mi South 11.5 mph 16.1 mph N/A   Overcast
2:54 PM 51.6 °F - 45.3 °F 79% 29.46 in 10.0 mi South 15.0 mph 23.0 mph N/A   Overcast
3:13 PM 53.8 °F - 44.6 °F 71% 29.47 in 10.0 mi SW 11.5 mph 19.6 mph N/A   Mostly Cloudy
3:34 PM 55.2 °F - 39.9 °F 56% 29.48 in 10.0 mi SW 16.1 mph 27.6 mph N/A   Mostly Cloudy
3:54 PM 55.2 °F - 39.2 °F 55% 29.49 in 10.0 mi SSW 16.1 mph 24.2 mph N/A   Mostly Cloudy
4:13 PM 55.4 °F - 38.8 °F 54% 29.50 in 10.0 mi SSW 12.7 mph 19.6 mph N/A   Overcast
4:34 PM 55.8 °F - 37.6 °F 51% 29.50 in 10.0 mi SSW 11.5 mph 16.1 mph N/A   Overcast
4:53 PM 55.4 °F - 35.8 °F 48% 29.51 in 10.0 mi SSW 12.7 mph 24.2 mph N/A   Overcast
5:14 PM 56.1 °F - 36.7 °F 48% 29.51 in 10.0 mi SSW 5.8 mph - N/A   Overcast
5:34 PM 55.4 °F - 36.7 °F 49% 29.51 in 10.0 mi SSE 6.9 mph - N/A   Scattered Clouds
5:53 PM 54.9 °F - 36.5 °F 50% 29.52 in 10.0 mi South 9.2 mph - N/A   Scattered Clouds
5:57 PM 55.0 °F - 36.0 °F 49% 29.52 in 10.0 mi South 6.9 mph - N/A   Mostly Cloudy
6:34 PM 50.2 °F - 40.1 °F 68% 29.57 in 10.0 mi WSW 5.8 mph 10.4 mph N/A Rain Light Rain
6:53 PM 49.6 °F - 40.6 °F 71% 29.57 in 10.0 mi West 3.5 mph - N/A   Overcast
7:14 PM 48.2 °F - 40.5 °F 75% 29.57 in 10.0 mi Calm Calm - N/A   Mostly Cloudy
7:33 PM 46.4 °F 45.2 °F 40.8 °F 81% 29.57 in 10.0 mi ENE 3.5 mph - N/A   Scattered Clouds
7:54 PM 45.7 °F 44.4 °F 40.8 °F 83% 29.58 in 10.0 mi East 3.5 mph - N/A   Clear
8:13 PM 45.5 °F 43.2 °F 41.0 °F 84% 29.58 in 10.0 mi East 4.6 mph - N/A   Scattered Clouds
8:34 PM 45.1 °F 42.8 °F 41.0 °F 85% 29.58 in 10.0 mi ENE 4.6 mph - N/A   Scattered Clouds
8:54 PM 46.8 °F - 40.1 °F 78% 29.58 in 10.0 mi Calm Calm - N/A   Mostly Cloudy
9:14 PM 48.0 °F - 40.1 °F 74% 29.59 in 10.0 mi East 5.8 mph - N/A   Overcast
9:33 PM 48.0 °F - 40.1 °F 74% 29.59 in 10.0 mi East 4.6 mph - N/A   Overcast
9:53 PM 50.2 °F - 39.0 °F 66% 29.60 in 10.0 mi SSE 5.8 mph - N/A   Mostly Cloudy
10:14 PM 51.4 °F - 37.8 °F 60% 29.61 in 10.0 mi SSE 5.8 mph - N/A   Mostly Cloudy
10:33 PM 50.9 °F - 38.3 °F 62% 29.62 in 10.0 mi SSW 8.1 mph - N/A   Mostly Cloudy
10:54 PM 49.6 °F - 38.5 °F 65% 29.63 in 10.0 mi WSW 9.2 mph - N/A   Scattered Clouds
11:14 PM 48.4 °F - 38.5 °F 69% 29.63 in 10.0 mi WSW 4.6 mph - N/A   Scattered Clouds
11:34 PM 47.8 °F - 38.5 °F 70% 29.63 in 10.0 mi Calm Calm - N/A   Scattered Clouds
11:54 PM 47.8 °F - 39.0 °F 71% 29.63 in 10.0 mi Calm Calm - N/A   Mostly Cloudy